logo
Search for airport 
image banner adimage banner adimage banner ad
image banner ad

EDAK - Grossenhain

Located in Grossenhain, Germany

ICAO - EDAK, IATA -

Data provided by Airmate  

General information

Coordinates: N51°18'24" E13°33'19"
Elevation is 417 feet MSL.
 
View others Airports in Saxony

Operational data

Special qualification required
Current time UTC:
Current local time:
Weather at : EDDC - Dresden ( 24 km )
METAR: EDDC 241850Z AUTO 16003KT CAVOK 16/14 Q1016 NOSIG
TAF: TAF EDDC 241700Z 2418/2518 15005KT 9999 FEW045 PROB40 TEMPO 2501/2505 3000 BR TEMPO 2513/2518 4500 SHRA BKN045CB PROB30 TEMPO 2514/2517 TSRA BKN040CB
View NOTAMs / SUP AIP / TFR affecting this airport [VIEW]
Communications frequencies: [VIEW]

Runways:

RWY identifierQFULength (ft)Width (ft)SurfaceLDA (ft)
11116°4642157CONC4642
29296°4642157CONC3871

Airport contact information

Address: Grossenhain Germany

Satellite view of EDAK